SBI1558 KCLT-KFTY

Flight info

Callsign SBI1558
Flight time N/A
Altitude 12000
Route BOBZY5 TNSLY MILBY DEHAN3
Aircraft A20N/M-SDE2E3FGHIJ1RWXY/LB1

Departure

Time N/A
Airport Charlotte Douglas International Airport (KCLT)

Arrival

Time 2026-05-04 22:22
Airport Fulton County Airport Brown Field (KFTY)
Time Latitude Longitude Altitude Speed Heading
2026-05-04 22:00 34.74802 -83.13900 26779 ft 397 kts 251°
2026-05-04 22:00 34.73826 -83.17024 26182 ft 393 kts 251°
2026-05-04 22:01 34.72857 -83.20122 25613 ft 390 kts 251°
2026-05-04 22:01 34.71900 -83.23184 25033 ft 387 kts 251°
2026-05-04 22:01 34.70947 -83.26224 24480 ft 383 kts 251°
2026-05-04 22:01 34.69999 -83.29247 23912 ft 381 kts 251°
2026-05-04 22:02 34.69061 -83.32235 23353 ft 378 kts 251°
2026-05-04 22:02 34.68129 -83.35201 22719 ft 374 kts 251°
2026-05-04 22:02 34.67200 -83.38153 21454 ft 377 kts 251°
2026-05-04 22:02 34.66249 -83.41180 19745 ft 391 kts 251°
2026-05-04 22:03 34.65257 -83.44338 17862 ft 409 kts 250°
2026-05-04 22:03 34.64235 -83.47585 16462 ft 410 kts 250°
2026-05-04 22:03 34.63221 -83.50788 15339 ft 404 kts 250°
2026-05-04 22:03 34.62219 -83.53953 14211 ft 399 kts 250°
2026-05-04 22:04 34.61230 -83.57077 13047 ft 394 kts 249°
2026-05-04 22:04 34.60257 -83.60159 11931 ft 388 kts 249°
2026-05-04 22:04 34.59300 -83.63191 10879 ft 381 kts 248°
2026-05-04 22:04 34.58356 -83.66177 9836 ft 376 kts 248°
2026-05-04 22:05 34.57416 -83.69124 8867 ft 370 kts 248°
2026-05-04 22:05 34.56510 -83.71963 8374 ft 352 kts 248°
2026-05-04 22:05 34.55654 -83.74643 8142 ft 328 kts 248°
2026-05-04 22:05 34.54860 -83.77129 8041 ft 304 kts 248°
2026-05-04 22:06 34.54128 -83.79428 8033 ft 281 kts 247°
2026-05-04 22:06 34.53444 -83.81568 8041 ft 272 kts 247°
2026-05-04 22:06 34.52753 -83.83729 8037 ft 275 kts 247°
2026-05-04 22:06 34.52075 -83.85848 8033 ft 271 kts 247°
2026-05-04 22:07 34.51391 -83.87981 8034 ft 272 kts 247°
2026-05-04 22:07 34.50698 -83.90131 8032 ft 274 kts 247°
2026-05-04 22:07 34.50013 -83.92266 8034 ft 271 kts 247°
2026-05-04 22:07 34.49330 -83.94402 8049 ft 273 kts 248°
2026-05-04 22:08 34.48646 -83.96543 8030 ft 272 kts 247°
2026-05-04 22:08 34.47960 -83.98679 8036 ft 273 kts 247°
2026-05-04 22:08 34.47012 -84.00633 8035 ft 269 kts 225°
2026-05-04 22:08 34.45440 -84.01854 8039 ft 271 kts 199°
2026-05-04 22:09 34.43593 -84.02354 8032 ft 272 kts 191°
2026-05-04 22:09 34.41748 -84.02806 8035 ft 270 kts 195°
2026-05-04 22:09 34.39942 -84.03462 8033 ft 272 kts 200°
2026-05-04 22:09 34.38183 -84.04305 8039 ft 271 kts 204°
2026-05-04 22:10 34.36466 -84.05254 8041 ft 273 kts 206°
2026-05-04 22:10 34.34757 -84.06261 8031 ft 273 kts 207°
2026-05-04 22:10 34.33059 -84.07282 8038 ft 271 kts 207°
2026-05-04 22:10 34.31370 -84.08294 8038 ft 271 kts 207°
2026-05-04 22:11 34.29676 -84.09311 8029 ft 272 kts 207°
2026-05-04 22:11 34.27979 -84.10330 8039 ft 271 kts 207°
2026-05-04 22:11 34.26284 -84.11341 8035 ft 272 kts 207°
2026-05-04 22:11 34.24597 -84.12346 8033 ft 271 kts 206°
2026-05-04 22:12 34.22896 -84.13354 8035 ft 272 kts 206°
2026-05-04 22:12 34.21192 -84.14363 8027 ft 273 kts 206°
2026-05-04 22:12 34.19492 -84.15371 7945 ft 271 kts 206°
2026-05-04 22:12 34.17805 -84.16372 7634 ft 270 kts 206°
2026-05-04 22:13 34.16119 -84.17375 7299 ft 269 kts 207°
2026-05-04 22:13 34.14444 -84.18372 6970 ft 268 kts 207°
2026-05-04 22:13 34.12767 -84.19367 6502 ft 271 kts 206°
2026-05-04 22:13 34.11045 -84.20383 5865 ft 280 kts 206°
2026-05-04 22:14 34.09272 -84.21435 5216 ft 289 kts 206°
2026-05-04 22:14 34.07858 -84.22224 4686 ft 296 kts 199°
2026-05-04 22:14 34.05828 -84.22498 4199 ft 298 kts 176°
2026-05-04 22:14 34.03788 -84.22224 4022 ft 287 kts 174°
2026-05-04 22:15 34.01884 -84.21960 3972 ft 270 kts 174°
2026-05-04 22:15 34.00070 -84.21705 3963 ft 255 kts 174°
2026-05-04 22:15 33.98279 -84.21443 3980 ft 262 kts 174°
2026-05-04 22:15 33.96487 -84.21176 3980 ft 263 kts 174°
2026-05-04 22:16 33.94680 -84.20909 3975 ft 258 kts 174°
2026-05-04 22:16 33.92903 -84.20648 3758 ft 258 kts 174°
2026-05-04 22:16 33.91129 -84.20393 3447 ft 256 kts 174°
2026-05-04 22:16 33.89355 -84.20141 3120 ft 257 kts 174°
2026-05-04 22:17 33.87610 -84.20125 2992 ft 248 kts 194°
2026-05-04 22:17 33.86085 -84.21093 2984 ft 254 kts 222°
2026-05-04 22:17 33.84789 -84.22597 2980 ft 262 kts 224°
2026-05-04 22:17 33.83489 -84.24133 2978 ft 259 kts 224°
2026-05-04 22:18 33.82240 -84.25621 2976 ft 247 kts 224°
2026-05-04 22:18 33.81032 -84.27064 2987 ft 246 kts 224°
2026-05-04 22:18 33.79795 -84.28561 2978 ft 257 kts 225°
2026-05-04 22:18 33.78519 -84.30083 2974 ft 259 kts 224°
2026-05-04 22:19 33.77256 -84.31583 2981 ft 255 kts 224°
2026-05-04 22:19 33.76086 -84.33186 2978 ft 253 kts 240°
2026-05-04 22:19 33.75621 -84.35230 2979 ft 260 kts 268°
2026-05-04 22:19 33.75974 -84.37364 2983 ft 262 kts 285°
2026-05-04 22:20 33.76518 -84.39463 2981 ft 264 kts 285°
2026-05-04 22:20 33.77056 -84.41536 2952 ft 249 kts 285°
2026-05-04 22:20 33.77557 -84.43468 2475 ft 241 kts 286°
2026-05-04 22:20 33.78045 -84.45352 2099 ft 227 kts 285°
2026-05-04 22:21 33.78477 -84.47100 1824 ft 212 kts 278°
2026-05-04 22:21 33.78463 -84.48823 1378 ft 199 kts 259°
2026-05-04 22:21 33.78240 -84.50407 1030 ft 183 kts 259°
2026-05-04 22:21 33.78051 -84.51802 816 ft 153 kts 257°
2026-05-04 22:22 33.77910 -84.52688 813 ft 46 kts 261°
2026-05-04 22:22 33.77904 -84.52785 813 ft 8 kts 252°
2026-05-04 22:22 33.77878 -84.52790 813 ft 4 kts 169°
2026-05-04 22:22 33.77850 -84.52762 813 ft 6 kts 138°
2026-05-04 22:23 33.77849 -84.52761 813 ft 0 kts 138°
2026-05-04 22:23 33.77846 -84.52758 813 ft 3 kts 138°
2026-05-04 22:23 33.77797 -84.52705 813 ft 15 kts 138°
2026-05-04 22:24 33.77698 -84.52600 818 ft 22 kts 139°
2026-05-04 22:24 33.77665 -84.52565 819 ft 0 kts 139°